This demonstration page uses our WeatherBlox Daily Observations layout. Learn more.

Left ArrowRight Arrow

Hourly Observations for September 20, 2020

Temp ( °F °C ) Dew Point ( °F °C ) Humidity (%) Winds ( mph kmh ) Pressure ( in mb ) Visibility ( mi km ) Precip ( " mm )
12:15 am 00:15 Clear 65 18.6 55 12.8 69 69 SSE 21 33 29.93 1014 7 11 0.00 0.00
12:35 am 00:35 Clear 65 18.4 55 12.8 70 70 SSE 17 28 29.94 1014 7 11 0.00 0.00
12:55 am 00:55 Clear 65 18.1 55 12.7 71 71 S 20 31 29.94 1014 7 11 0.00 0.00
1:15 am 01:15 Clear 65 18.1 55 12.6 70 70 SSE 18 30 29.94 1014 7 11 0.00 0.00
1:35 am 01:35 Clear 64 18 55 12.5 70 70 SSE 15 24 29.94 1014 7 11 0.00 0.00
1:55 am 01:55 Clear 64 17.8 55 12.5 71 71 SSE 17 28 29.93 1014 7 11 0.00 0.00
2:15 am 02:15 Clear 64 17.9 55 12.5 71 71 SSE 15 24 29.93 1014 7 11 0.00 0.00
2:35 am 02:35 Clear 64 17.8 55 12.5 71 71 SSE 15 24 29.93 1014 7 11 0.00 0.00
2:55 am 02:55 Clear 64 17.8 55 12.5 71 71 SSE 17 28 29.92 1013 7 11 0.00 0.00
3:15 am 03:15 Clear 64 18 54 12.4 70 70 SSE 16 26 29.92 1013 7 11 0.00 0.00
3:35 am 03:35 Clear 64 18 54 12.3 69 69 S 20 31 29.92 1013 7 11 0.00 0.00
3:55 am 03:55 Clear 64 17.7 54 12.3 71 71 S 20 31 29.91 1013 7 11 0.00 0.00
4:15 am 04:15 Clear 64 17.6 54 12.2 71 71 S 17 28 29.91 1013 7 11 0.00 0.00
4:35 am 04:35 Clear 64 17.5 54 12.2 71 71 S 23 37 29.91 1013 7 11 0.00 0.00
4:55 am 04:55 Clear 63 17.2 54 12.2 73 73 S 18 30 29.93 1013 7 11 0.00 0.00
5:15 am 05:15 Clear 63 17.1 54 12.3 74 74 S 13 20 29.96 1014 7 11 0.00 0.00
5:35 am 05:35 Clear 62 16.9 54 12.2 74 74 S 17 28 29.94 1014 7 11 0.00 0.00
5:55 am 05:55 Clear 62 16.6 54 12.2 75 75 S 24 39 29.93 1014 7 11 0.00 0.00
6:15 am 06:15 Clear 61 16.1 54 12.2 78 78 S 18 30 29.94 1014 7 11 0.00 0.00
6:35 am 06:35 Clear 61 16 54 12.2 78 78 S 17 28 29.94 1014 7 11 0.00 0.00
6:55 am 06:55 Clear 60 15.7 54 12.2 80 80 S 16 26 29.95 1014 7 11 0.00 0.00
7:15 am 07:15 Clear 60 15.5 54 12.1 80 80 S 15 24 29.97 1015 7 11 0.00 0.00
7:35 am 07:35 Sunny 59 15.2 54 12.1 82 82 S 14 22 29.99 1016 7 11 0.00 0.00
7:55 am 07:55 Sunny 59 15.1 54 12.1 82 82 S 12 19 29.98 1015 7 11 0.00 0.00
8:15 am 08:15 Hazy 59 15.2 54 12.2 82 82 S 7 11 30.00 1016 5 8 0.00 0.00
8:35 am 08:35 Sunny 60 15.8 54 12.4 80 80 S 12 19 29.99 1016 7 11 0.00 0.00
8:55 am 08:55 Sunny 61 16.2 55 12.5 79 79 S 13 20 29.99 1015 7 11 0.00 0.00
9:15 am 09:15 Hazy 62 16.7 55 12.5 76 76 S 15 24 29.98 1015 5 8 0.00 0.00
9:35 am 09:35 Sunny 62 16.8 55 12.5 76 76 S 9 15 29.99 1016 7 11 0.00 0.00
9:55 am 09:55 Sunny 63 17.4 55 12.6 74 74 S 10 17 29.98 1015 7 11 0.00 0.00
10:15 am 10:15 Sunny 64 17.7 55 12.7 73 73 S 9 15 29.98 1015 7 11 0.00 0.00
10:35 am 10:35 Sunny 67 19.7 55 13 65 65 S 14 22 29.96 1015 7 11 0.00 0.00
10:55 am 10:55 Sunny 68 20 55 12.6 63 63 S 15 24 29.96 1015 7 11 0.00 0.00
11:15 am 11:15 Sunny 70 21.1 55 12.6 58 58 SSW 15 24 29.95 1014 7 11 0.00 0.00
11:35 am 11:35 Sunny 72 22.4 55 12.6 54 54 S 15 24 29.94 1014 7 11 0.00 0.00
11:55 am 11:55 Sunny 74 23.2 54 12.4 51 51 SSW 15 24 29.93 1014 7 11 0.00 0.00
12:15 pm 12:15 Sunny 75 23.9 54 12.2 48 48 SSW 15 24 29.93 1014 7 11 0.00 0.00
12:35 pm 12:35 Sunny 77 24.8 54 12.3 46 46 SSW 14 22 29.92 1013 7 11 0.00 0.00
12:55 pm 12:55 Sunny 78 25.7 54 12 43 43 SSW 15 24 29.90 1013 7 11 0.00 0.00
1:15 pm 13:15 Sunny 80 26.7 54 12.1 40 40 S 16 26 29.89 1012 7 11 0.00 0.00
1:35 pm 13:35 Sunny 80 26.9 54 12 40 40 S 20 31 29.88 1012 7 11 0.00 0.00
1:55 pm 13:55 Sunny 81 27.2 54 12.2 39 39 SSW 17 28 29.89 1012 7 11 0.00 0.00
2:15 pm 14:15 Sunny 82 27.6 53 11.7 37 37 S 17 28 29.88 1012 10 16 0.00 0.00
2:35 pm 14:35 Sunny 83 28.2 54 12 37 37 SSW 13 20 29.87 1012 7 11 0.00 0.00
2:55 pm 14:55 Sunny 84 28.9 53 11.7 34 34 SW 17 28 29.87 1011 10 16 0.00 0.00
3:15 pm 15:15 Sunny 86 29.8 53 11.8 33 33 SSW 18 30 29.85 1011 7 11 0.00 0.00
3:35 pm 15:35 Sunny 86 30 53 11.8 33 33 S 21 33 29.84 1010 10 16 0.00 0.00
3:55 pm 15:55 Sunny 86 30.2 53 11.5 32 32 S 17 28 29.84 1010 7 11 0.00 0.00
4:15 pm 16:15 Sunny 87 30.4 53 11.5 31 31 S 18 30 29.84 1010 10 16 0.00 0.00
4:35 pm 16:35 Sunny 87 30.4 52 11.3 31 31 S 17 28 29.84 1010 10 16 0.00 0.00
4:55 pm 16:55 Sunny 87 30.5 52 11.1 30 30 SSW 18 30 29.84 1010 7 11 0.00 0.00
5:15 pm 17:15 Sunny 86 30 53 11.4 32 32 SSW 14 22 29.84 1010 10 16 0.00 0.00
5:35 pm 17:35 Sunny 87 30.4 52 11.3 31 31 S 14 22 29.84 1010 10 16 0.00 0.00
5:55 pm 17:55 Sunny 85 29.7 53 11.4 32 32 S 18 30 29.84 1011 7 11 0.00 0.00
6:15 pm 18:15 Sunny 84 29.1 52 11.3 33 33 SSE 16 26 29.86 1011 7 11 0.00 0.00
6:35 pm 18:35 Sunny 83 28.4 53 11.7 36 36 SSE 16 26 29.87 1012 7 11 0.00 0.00
6:55 pm 18:55 Sunny 81 27.2 55 12.6 40 40 SSE 15 24 29.88 1012 7 11 0.00 0.00
7:15 pm 19:15 Sunny 79 26.3 55 12.5 42 42 SSE 16 26 29.89 1012 7 11 0.00 0.00
7:35 pm 19:35 Sunny 78 25.6 54 12 43 43 SSE 13 20 29.90 1013 7 11 0.00 0.00
7:55 pm 19:55 Clear 76 24.6 53 11.8 45 45 SSE 13 20 29.91 1013 10 16 0.00 0.00
8:15 pm 20:15 Clear 75 24.1 54 12.1 47 47 SE 14 22 29.93 1013 10 16 0.00 0.00
8:35 pm 20:35 Clear 74 23.2 54 12.3 50 50 SE 14 22 29.93 1014 7 11 0.00 0.00
8:55 pm 20:55 Clear 73 22.6 54 12.1 52 52 SE 15 24 29.95 1014 10 16 0.00 0.00
9:15 pm 21:15 Clear 71 21.9 54 12 54 54 SSE 16 26 29.97 1015 7 11 0.00 0.00
9:35 pm 21:35 Clear 70 21.1 53 11.8 55 55 SSE 13 20 29.98 1015 7 11 0.00 0.00
9:55 pm 21:55 Clear 69 20.6 53 11.9 58 58 SSE 14 22 29.99 1015 7 11 0.00 0.00
10:15 pm 22:15 Clear 68 20.2 53 11.8 59 59 SSE 15 24 30.00 1016 7 11 0.00 0.00
10:35 pm 22:35 Clear 68 20 53 11.7 59 59 SSE 16 26 30.00 1016 7 11 0.00 0.00
10:55 pm 22:55 Clear 67 19.7 53 11.6 60 60 SSE 13 20 30.01 1016 7 11 0.00 0.00
11:15 pm 23:15 Clear 67 19.5 53 11.5 60 60 SSE 14 22 30.02 1016 7 11 0.00 0.00
11:35 pm 23:35 Clear 66 19.1 53 11.5 62 62 SSE 13 20 30.03 1017 7 11 0.00 0.00
11:55 pm 23:55 Clear 66 18.8 52 11.3 62 62 SSE 13 20 30.03 1017 7 11 0.00 0.00

Powered by AerisWeather